Regional Weather Roundup
Issued by NWS

Home | Current Version | Previous Version | Graphics & Text | Print | Product List | Glossary On
Versions: 1 2 3 4 5 6 7 8 9 10 11 12 13 14 15 16 17 18 19 20 21 22 23 24 25 26 27 28 29 30 31 32 33 34 35 36 37 38 39 40 41 42 43 44 45 46 47 48 49 50
000
ASUS43 KIND 222359
RWRIN

WEATHER ROUNDUP FOR INDIANA
NATIONAL WEATHER SERVICE INDIANAPOLIS IN
800 PM EDT SUN APR 22 2018

NOTE: "FAIR" INDICATES FEW OR NO CLOUDS BELOW 12,000 FEET WITH NO
SIGNIFICANT WEATHER AND/OR OBSTRUCTIONS TO VISIBILITY.

* - STATION DOES NOT REPORT WEATHER SUCH AS PRECIPITATION OR FOG.

+ - STATION NOT QUALITY CONTROLLED BY THE NATIONAL WEATHER SERVICE.
    USE DATA WITH CAUTION...ESPECIALLY DEWPOINT AND RELATIVE
    HUMIDITY OBSERVATIONS.

INZ001>003-010>013-019-020-230100-
NORTHWEST INDIANA

CITY           SKY/WX    TMP DP  RH WIND       PRES   REMARKS
GARY /AIRPORT/ MOCLDY    48  32  53 NE10      30.25S
KNOX *+        FAIR      61  27  27 E13       30.23R
MONTICELLO +   FAIR      62  25  24 E12       30.19S
6HR MIN TEMP:  62; 6HR MAX TEMP:  66;


$$

LMZ046-743>745-230100-
SOUTHERN LAKE MICHIGAN

STATION/POSITION TIME  TEMP    WIND        PRES    WAVE
                       AIR SEA DIR/SP/G            HT
                 (UTC) (F)     (DEG/KT/KT) (MB)    (FT)
MICHIGAN CITY    2330   43      30/ 11/ 12   N/A

$$

INZ004-005-014>016-021>024-230100-
NORTH CENTRAL INDIANA

CITY           SKY/WX    TMP DP  RH WIND       PRES   REMARKS
GOSHEN         FAIR      57  26  30 E13       30.26S
6HR MIN TEMP:  57; 6HR MAX TEMP:  63;

ROCHESTER +    FAIR      61  25  25 E15       30.24S
SOUTH BEND     FAIR      59  22  24 E12       30.26S
6HR MIN TEMP:  59; 6HR MAX TEMP:  64;

WARSAW +       FAIR      55  27  33 E13       30.25S

$$

INZ006>009-017-018-025>027-230100-
NORTHEAST INDIANA

CITY           SKY/WX    TMP DP  RH WIND       PRES   REMARKS
FORT WAYNE     MOCLDY    56  26  31 E15       30.26S
6HR MIN TEMP:  56; 6HR MAX TEMP:  64;


$$

INZ028-029-035-036-043>045-051>053-230100-
WEST CENTRAL INDIANA

CITY           SKY/WX    TMP DP  RH WIND       PRES   REMARKS
GREENCASTLE +  FAIR      61  28  29 E6        30.15S
LAFAYETTE      FAIR      61  29  29 E12       30.18R
6HR MIN TEMP:  61; 6HR MAX TEMP:  66;

TERRE HAUTE    FAIR      62  34  35 E9        30.13R
6HR MIN TEMP:  62; 6HR MAX TEMP:  68;


$$

INZ030>032-037>040-046>048-054>057-064-065-230100-
CENTRAL INDIANA

CITY           SKY/WX    TMP DP  RH WIND       PRES   REMARKS
COLUMBUS       CLEAR     61 N/A N/A E8        30.16F
GREENWOOD *+   FAIR      62  29  29 E6        30.16F
6HR MIN TEMP:  61; 6HR MAX TEMP:  64;

INDIANAPOLIS   CLOUDY    63  24  22 E12       30.15F
6HR MIN TEMP:  61; 6HR MAX TEMP:  66;

-EAGLE CREEK   FAIR      63  31  30 NE9       30.15F
6HR MIN TEMP:  62; 6HR MAX TEMP:  67;

KOKOMO +       FAIR      59  31  34 E13       30.21R
6HR MIN TEMP:  59; 6HR MAX TEMP:  64;

MT COMFORT *+  FAIR      59  39  47 NE9       30.17F
SHELBYVILLE    FAIR      64  27  24 E8        30.15F
6HR MIN TEMP:  64; 6HR MAX TEMP:  69;

ZIONSVILLE +   FAIR      59  32  36 NE9       30.18F
6HR MIN TEMP:  59; 6HR MAX TEMP:  64;


$$

INZ033-034-041-042-049-050-058-059-230100-
EAST CENTRAL INDIANA

CITY           SKY/WX    TMP DP  RH WIND       PRES   REMARKS
MUNCIE         FAIR      62  30  29 E12       30.20S
6HR MIN TEMP:  62; 6HR MAX TEMP:  66;

RICHMOND +     FAIR      59  32  36 E13       30.20S

$$

INZ060-061-067>069-081>083-085>088-230100-
SOUTHWEST INDIANA

CITY           SKY/WX    TMP DP  RH WIND       PRES   REMARKS
EVANSVILLE     LGT RAIN  60  55  83 E7        30.05F
6HR MIN TEMP:  60; 6HR MAX TEMP:  69; 6HR PCP:  0.01;

HUNTINGBURG +  LGT RAIN  63  52  67 NE6       30.07F
6HR MIN TEMP:  62; 6HR MAX TEMP:  71; 6HR PCP: TRACE;


$$

INZ062-063-066-070>080-084-089>092-230100-
SOUTH CENTRAL AND SOUTHEAST INDIANA

CITY           SKY/WX    TMP DP  RH WIND       PRES   REMARKS
BLOOMINGTON    FAIR      63  30  28 E9        30.12F
6HR MIN TEMP:  63; 6HR MAX TEMP:  68;

SEYMOUR +      FAIR      64  36  34 E10       30.13S

$$




USA.gov is the U.S. government's official web portal to all federal, state and local government web resources and services.